Location: Poughquag
(41.6090°N, 73.6820°W)
Time: 14:58:00
(UTC-05:00)

S-56A Canister/Altair - Pass Details

Date: 30 November 2023
Orbit: 640 x 2488 km, 38.9° (Epoch: 26 February)

Event Time Altitude Azimuth Distance (km) Brightness Sun altitude
Rises 19:14:28 0° 273° (W) 3,689 12.2 -31.0°
Reaches altitude 10° 19:17:25 10° 258° (WSW) 2,980 11.4 -31.5°
Maximum altitude 19:22:52 22° 210° (SSW) 2,620 10.4 -32.5°
Drops below altitude 10° 19:30:00 10° 165° (SSE) 4,010 11.0 -33.9°
Enters shadow 19:31:43 - 160° (SSE) 4,473 11.2 -34.2°
